STARLINK-1367 (45539 NORAD) Tracking and Keplerian Element Data

This shows tracking and keplerian element data for the satellite.

Feedback or suggestion? Click here.




ElementValue
Catalog45539
NameSTARLINK-1367
Epoch Orbit177
Epoch Day189.91668981
Epoch Year2020
RAAN25.3776
Inclination52.9847
Eccentricity0.0008654
Argument of Perigee48.0152
Mean Anonmoly180.1148
Mean Motion15.62685742
Decay Rate0.00036833
L11 45539U 20025J 20189.91668981 .00036833 00000-0 40669-3 0 9994
L22 45539 52.9847 25.3776 0008654 48.0152 180.1148 15.62685742 1770

Live tracking and technical data element details for STARLINK-1367 (NORAD 45539). STARLINK-1367 can be tracked NOW for your location showing map with azimuth and elevation plus other details from your city location.

Track the satellite on the map from your city or location and see movement details for azimuth, elevation, latitude, longitude, range, height, and movement on the map or in text.







IsCatalogInMostPopularTable: catalog: 45539, numindb: 16
Update: records affected: 1



GetName: 45539 STARLINK-1367

Hit Count: updated at: Fri, 10 Jul 2020 03:57:43 GMT